• In Hungary
  • List of Countries
  • For 7 days
  • Water Temperature
  • Satellite Maps
  • Weather Map
  • News
  • Weather Widgets
  • user-avatar
    Login

    Hourly Weather Mikorzyn

    Today, 24 June, Sunday

    Time Temperature Precipitation Wind Pressure Humidity
    00:00 +9°C° 0 mm 3 mps 755 mmHg 89%
    01:00 +9°C° 0 mm 2 mps 755 mmHg 91%
    02:00 +9°C° 0 mm 2 mps 755 mmHg 92%
    03:00 +9°C° 0 mm 3 mps 754 mmHg 92%
    04:00 +9°C° 0 mm 3 mps 754 mmHg 93%
    05:00 +10°C° 0.3 mm 3 mps 754 mmHg 90%
    06:00 +11°C° 0.3 mm 4 mps 754 mmHg 88%
    07:00 +13°C° 0 mm 4 mps 754 mmHg 85%
    08:00 +13°C° 0.8 mm 4 mps 754 mmHg 84%
    09:00 +13°C° 0.8 mm 4 mps 754 mmHg 83%
    10:00 +14°C° 0.8 mm 4 mps 754 mmHg 82%
    11:00 +15°C° 0.7 mm 5 mps 754 mmHg 77%
    12:00 +16°C° 0.7 mm 5 mps 754 mmHg 73%
    13:00 +18°C° 0 mm 4 mps 754 mmHg 67%
    14:00 +18°C° 0.3 mm 4 mps 754 mmHg 64%
    15:00 +19°C° 0.3 mm 4 mps 754 mmHg 61%
    16:00 +19°C° 0.3 mm 4 mps 754 mmHg 58%
    17:00 +18°C° 0.2 mm 3 mps 754 mmHg 63%
    18:00 +17°C° 0.2 mm 3 mps 755 mmHg 67%
    19:00 +16°C° 0.2 mm 2 mps 755 mmHg 72%
    20:00 +15°C° 0 mm 2 mps 755 mmHg 76%
    21:00 +13°C° 0 mm 2 mps 755 mmHg 81%
    22:00 +10°C° 0 mm 2 mps 756 mmHg 86%
    23:00 +11°C° 0 mm 1 mps 756 mmHg 86%

    Tomorrow, 25 June, Monday

    Time Temperature Precipitation Wind Pressure Humidity
    00:00 +10°C° 0 mm 1 mps 756 mmHg 87%
    01:00 +10°C° 0 mm 1 mps 756 mmHg 87%
    02:00 +10°C° 0 mm 1 mps 756 mmHg 87%
    03:00 +10°C° 0 mm 1 mps 756 mmHg 86%
    04:00 +9°C° 0 mm 2 mps 756 mmHg 85%
    05:00 +11°C° 0 mm 3 mps 757 mmHg 81%
    06:00 +13°C° 0 mm 3 mps 757 mmHg 77%
    07:00 +14°C° 0 mm 4 mps 757 mmHg 72%
    08:00 +15°C° 0.2 mm 4 mps 757 mmHg 71%
    09:00 +17°C° 0.2 mm 4 mps 757 mmHg 70%
    10:00 +18°C° 0.2 mm 4 mps 757 mmHg 69%
    11:00 +18°C° 0.8 mm 4 mps 757 mmHg 70%
    12:00 +18°C° 0.8 mm 4 mps 757 mmHg 71%
    13:00 +19°C° 0.8 mm 4 mps 757 mmHg 72%
    14:00 +18°C° 1.4 mm 4 mps 757 mmHg 75%
    15:00 +18°C° 1.4 mm 3 mps 757 mmHg 77%
    16:00 +17°C° 1.4 mm 2 mps 757 mmHg 80%
    17:00 +17°C° 0.3 mm 2 mps 757 mmHg 80%
    18:00 +18°C° 0.3 mm 1 mps 757 mmHg 81%
    19:00 +18°C° 0.3 mm 1 mps 757 mmHg 81%
    20:00 +16°C° 0 mm 1 mps 757 mmHg 82%
    21:00 +15°C° 0 mm 1 mps 757 mmHg 84%
    22:00 +14°C° 0 mm 2 mps 757 mmHg 85%
    23:00 +14°C° 0 mm 2 mps 757 mmHg 86%

    Day after tomorrow, 26 June, Tuesday

    Time Temperature Precipitation Wind Pressure Humidity
    00:00 +14°C° 0 mm 2 mps 757 mmHg 86%
    01:00 +14°C° 0 mm 2 mps 757 mmHg 86%
    02:00 +14°C° 0.1 mm 2 mps 757 mmHg 87%
    03:00 +13°C° 0.1 mm 3 mps 757 mmHg 89%
    04:00 +13°C° 0.1 mm 3 mps 757 mmHg 90%
    05:00 +14°C° 0 mm 3 mps 757 mmHg 88%
    06:00 +14°C° 0 mm 3 mps 757 mmHg 85%
    07:00 +16°C° 0 mm 3 mps 757 mmHg 83%
    08:00 +18°C° 0.2 mm 4 mps 757 mmHg 75%
    09:00 +19°C° 0.2 mm 4 mps 757 mmHg 68%
    10:00 +21°C° 0.2 mm 5 mps 757 mmHg 60%
    11:00 +21°C° 0.3 mm 5 mps 757 mmHg 60%
    12:00 +21°C° 0.3 mm 5 mps 757 mmHg 59%
    13:00 +21°C° 0.3 mm 5 mps 757 mmHg 59%
    14:00 +21°C° 0.2 mm 5 mps 757 mmHg 61%
    15:00 +20°C° 0.2 mm 5 mps 757 mmHg 63%
    16:00 +20°C° 0.2 mm 6 mps 757 mmHg 65%
    17:00 +19°C° 0 mm 5 mps 757 mmHg 69%
    18:00 +17°C° 0 mm 5 mps 757 mmHg 72%
    19:00 +16°C° 0 mm 5 mps 757 mmHg 76%
    20:00 +15°C° 0 mm 4 mps 758 mmHg 80%
    21:00 +14°C° 0 mm 4 mps 758 mmHg 85%
    22:00 +13°C° 0 mm 4 mps 758 mmHg 89%
    23:00 +12°C° 0 mm 4 mps 758 mmHg 91%

    27 June, Wednesday

    Time Temperature Precipitation Wind Pressure Humidity
    00:00 +12°C° 0 mm 4 mps 758 mmHg 94%
    01:00 +12°C° 0 mm 4 mps 758 mmHg 96%
    02:00 +12°C° 0.1 mm 3 mps 758 mmHg 96%
    03:00 +12°C° 0.1 mm 3 mps 758 mmHg 97%
    04:00 +12°C° 0.1 mm 3 mps 758 mmHg 97%
    05:00 +13°C° 0 mm 3 mps 758 mmHg 92%
    06:00 +14°C° 0 mm 4 mps 759 mmHg 87%
    07:00 +17°C° 0 mm 4 mps 759 mmHg 82%
    08:00 +18°C° 0 mm 4 mps 759 mmHg 74%
    09:00 +20°C° 0 mm 4 mps 759 mmHg 67%
    10:00 +22°C° 0 mm 4 mps 759 mmHg 60%
    11:00 +23°C° 0.4 mm 4 mps 759 mmHg 59%
    12:00 +23°C° 0.4 mm 5 mps 759 mmHg 58%
    13:00 +25°C° 0.4 mm 5 mps 759 mmHg 57%
    14:00 +23°C° 0.6 mm 5 mps 759 mmHg 61%
    15:00 +23°C° 0.6 mm 5 mps 759 mmHg 65%
    16:00 +22°C° 0.6 mm 5 mps 759 mmHg 69%
    17:00 +21°C° 0.2 mm 4 mps 759 mmHg 74%
    18:00 +21°C° 0.2 mm 4 mps 759 mmHg 79%
    19:00 +20°C° 0.2 mm 3 mps 759 mmHg 84%
    20:00 +19°C° 0.1 mm 3 mps 759 mmHg 86%
    21:00 +18°C° 0.1 mm 3 mps 759 mmHg 89%
    22:00 +17°C° 0.1 mm 3 mps 759 mmHg 92%
    23:00 +17°C° 0 mm 4 mps 759 mmHg 93%

    28 June, Thursday

    Time Temperature Precipitation Wind Pressure Humidity
    00:00 +17°C° 0 mm 4 mps 759 mmHg 93%
    01:00 +17°C° 0 mm 4 mps 758 mmHg 93%
    02:00 +17°C° 0 mm 4 mps 758 mmHg 93%
    03:00 +16°C° 0 mm 5 mps 757 mmHg 94%
    04:00 +15°C° 0 mm 5 mps 757 mmHg 94%
    05:00 +17°C° 0 mm 5 mps 757 mmHg 90%
    06:00 +19°C° 0 mm 6 mps 756 mmHg 85%
    07:00 +20°C° 0 mm 6 mps 756 mmHg 81%
    08:00 +21°C° 0 mm 7 mps 756 mmHg 75%
    09:00 +23°C° 0 mm 7 mps 755 mmHg 69%
    10:00 +24°C° 0 mm 8 mps 755 mmHg 62%
    11:00 +24°C° 0.2 mm 8 mps 754 mmHg 65%
    12:00 +24°C° 0.2 mm 8 mps 754 mmHg 68%
    13:00 +23°C° 0.2 mm 7 mps 754 mmHg 71%
    14:00 +24°C° 0.6 mm 7 mps 753 mmHg 73%
    15:00 +24°C° 0.6 mm 6 mps 753 mmHg 76%
    16:00 +24°C° 0.6 mm 6 mps 752 mmHg 78%
    17:00 +23°C° 1.6 mm 6 mps 752 mmHg 81%
    18:00 +22°C° 1.6 mm 6 mps 751 mmHg 85%
    19:00 +22°C° 1.6 mm 6 mps 751 mmHg 89%
    20:00 +21°C° 1.4 mm 5 mps 750 mmHg 91%
    21:00 +20°C° 1.4 mm 4 mps 750 mmHg 94%
    22:00 +20°C° 1.4 mm 4 mps 750 mmHg 96%
    23:00 +20°C° 0.4 mm 4 mps 749 mmHg 96%

    29 June, Friday

    Time Temperature Precipitation Wind Pressure Humidity
    00:00 +19°C° 0.4 mm 3 mps 749 mmHg 97%
    01:00 +19°C° 0.4 mm 3 mps 749 mmHg 97%
    02:00 +19°C° 0.1 mm 2 mps 748 mmHg 98%
    03:00 +19°C° 0.1 mm 2 mps 748 mmHg 98%
    04:00 +19°C° 0.1 mm 2 mps 748 mmHg 98%
    05:00 +20°C° 0.1 mm 2 mps 748 mmHg 97%
    06:00 +21°C° 0.1 mm 1 mps 748 mmHg 95%
    07:00 +22°C° 0.1 mm 1 mps 748 mmHg 94%
    08:00 +23°C° 0 mm 1 mps 747 mmHg 90%
    09:00 +24°C° 0 mm 1 mps 747 mmHg 86%
    10:00 +25°C° 0 mm 1 mps 747 mmHg 82%
    11:00 +25°C° 0.4 mm 1 mps 747 mmHg 77%
    12:00 +26°C° 0.4 mm 1 mps 747 mmHg 73%
    13:00 +27°C° 0.4 mm 1 mps 746 mmHg 68%
    14:00 +27°C° 1 mm 1 mps 746 mmHg 68%
    15:00 +27°C° 1 mm 1 mps 746 mmHg 67%
    16:00 +27°C° 1 mm 2 mps 746 mmHg 67%
    17:00 +25°C° 1.5 mm 2 mps 746 mmHg 73%
    18:00 +24°C° 1.5 mm 3 mps 746 mmHg 80%
    19:00 +22°C° 1.5 mm 4 mps 746 mmHg 86%
    20:00 +21°C° 0.3 mm 4 mps 746 mmHg 89%
    21:00 +19°C° 0.3 mm 4 mps 746 mmHg 92%
    22:00 +18°C° 0.3 mm 4 mps 746 mmHg 94%
    23:00 +18°C° 0.2 mm 4 mps 746 mmHg 95%
    Show more